Regional Weather Roundup
Issued by NWS Charleston, WV

Home | Current Version | Previous Version | Text Only | Print | Product List | Glossary Off
Versions: 1 2 3 4 5 6 7 8 9 10 11 12 13 14 15 16 17 18 19 20 21 22 23 24 25 26

000
ASUS41 KRLX 260910
RWRRLX
West Virginia Regional Weather Roundup
National Weather Service Charleston WV
500 AM EDT THU MAY 26 2016

Note: "fair" indicates few or no clouds below 12,000 feet with no
significant weather and/or obstructions to visibility.

WVZ003-261000-
Northern Panhandle of West Virginia

CITY           SKY/WX    TMP DP  RH WIND       PRES   REMARKS
WHEELING       CLOUDY    67  55  65 SE5       30.10S
$$

WVZ009-261000-
Northwest West Virginia

CITY           SKY/WX    TMP DP  RH WIND       PRES   REMARKS
PARKERSBURG    LGT RAIN  62  60  93 CALM      30.12S
$$

WVZ006-261000-
Western West Virginia

CITY           SKY/WX    TMP DP  RH WIND       PRES   REMARKS
HUNTINGTON     LGT RAIN  66  63  90 VRB3      30.10R FOG
$$

WVZ015-261000-
West Central West Virginia

CITY           SKY/WX    TMP DP  RH WIND       PRES   REMARKS
CHARLESTON     CLOUDY    63  61  93 CALM      30.11S
$$

WVZ022-031-261000-
North Central West Virginia

CITY           SKY/WX    TMP DP  RH WIND       PRES   REMARKS
CLARKSBURG     MOCLDY    59  57  93 CALM      30.13R
MORGANTOWN     CLOUDY    63  54  72 CALM      30.13S
$$

WVZ025-035-042-045-261000-
Southern West Virginia

CITY           SKY/WX    TMP DP  RH WIND       PRES   REMARKS
BECKLEY        MOCLDY    63  55  75 CALM      30.20S
LOGAN          LGT RAIN  66  61  82 N6        30.16R
BLUEFIELD      LGT RAIN  65  54  67 CALM      30.23R
LEWISBURG      CLOUDY    57  55  93 CALM      30.22R
$$

WVZ047-261000-
Northern Mountains of West Virginia

CITY           SKY/WX    TMP DP  RH WIND       PRES   REMARKS
ELKINS         CLOUDY    56  53  90 CALM      30.19S
$$

WVZ052-261000-
Eastern Panhandle of West Virginia

CITY           SKY/WX    TMP DP  RH WIND       PRES   REMARKS
MARTINSBURG      N/A     57  55  93 SE3       30.11S
PETERSBURG     CLOUDY    58  57  99 CALM      30.16S
$$




USA.gov is the U.S. government's official web portal to all federal, state and local government web resources and services.